Weather History for LTCJ - October, 2012

Change the Weather History Date:

Friday, October 19, 2012

  Actual Average (LTCC) Record (LTCC)
Temperature  
Mean Temperature 67 °F -  
Max Temperature 86 °F 73 °F 84 °F (2002)
Min Temperature 48 °F 49 °F 42 °F (2007)
Cooling Degree Days 2    
Growing Degree Days 17 (Base 50)    
Moisture  
Dew Point 34 °F    
Average Humidity 35    
Maximum Humidity 62    
Minimum Humidity 13    
Precipitation  
Precipitation 0.00 in - - ()
Sea Level Pressure  
Sea Level Pressure 30.03 in    
Wind  
Wind Speed 3 mph ()    
Max Wind Speed 9 mph    
Max Gust Speed -    
Visibility 6.2 miles    
Events      
Averages and records for this station are not official NWS values.
T = Trace of Precipitation, MM = Missing Value Source: Averaged Metar Reports

Daily Weather History Graph

Daily Weather History Graph

Search for Another Location

Airport or City:

Trip Planner

Search our weather history database for the weather conditions in past years. The results will help you decide how hot, cold, wet, or windy it might be!

Date:

Astronomy

Oct. 19, 2012 Rise Set
Actual Time 6:28 AM EEST 5:32 PM EEST
Civil Twilight 6:01 AM EEST 5:58 PM EEST
Nautical Twilight 5:30 AM EEST 6:29 PM EEST
Astronomical Twilight 5:00 AM EEST 6:59 PM EEST
Moon 10:46 AM EEST (10/19) 8:50 PM EEST (10/19)
Length of Visible Light 11h 57m
Length of Day
11h 04m
Waxing Crescent, 20% of the Moon is Illuminated
Oct 19
Waxing Crescent
Oct 22
First Quarter
Oct 29
Full
Nov 7
Last Quarter
Nov 14
New

Hourly Weather History & Observations

Time (EEST) Temp. Dew Point Humidity Pressure Visibility Wind Dir Wind Speed Gust Speed Precip Events Conditions
12:20 AM 57.2 °F 33.8 °F 41% 30.01 in - Variable 2.3 mph - N/A   Clear
12:50 AM 55.4 °F 35.6 °F 47% 30.01 in - Variable 2.3 mph - N/A   Clear
1:20 AM 53.6 °F 37.4 °F 54% 30.04 in - WSW 4.6 mph - N/A   Clear
1:50 AM 51.8 °F 32.0 °F 47% 30.04 in - South 4.6 mph - N/A   Clear
2:20 AM 53.6 °F 33.8 °F 47% 30.04 in - South 4.6 mph - N/A   Clear
3:20 AM 53.6 °F 33.8 °F 47% 30.04 in - Variable 2.3 mph - N/A   Clear
3:50 AM 51.8 °F 33.8 °F 50% 30.04 in - South 3.5 mph - N/A   Clear
4:20 AM 50.0 °F 35.6 °F 58% 30.04 in - Variable 1.2 mph - N/A   Clear
4:50 AM 50.0 °F 33.8 °F 54% 30.04 in - Calm Calm - N/A   Clear
5:20 AM 50.0 °F 33.8 °F 54% 30.04 in - Calm Calm - N/A   Clear
5:50 AM 50.0 °F 35.6 °F 58% 30.06 in - Calm Calm - N/A   Clear
6:20 AM 48.2 °F 35.6 °F 62% 30.06 in - Calm Calm - N/A   Clear
6:50 AM 48.2 °F 33.8 °F 58% 30.06 in - North 1.2 mph - N/A   Clear
7:20 AM 50.0 °F 37.4 °F 62% 30.06 in - North 3.5 mph - N/A   Clear
7:50 AM 53.6 °F 37.4 °F 54% 30.06 in 6.2 mi NNE 3.5 mph - N/A   Partly Cloudy
8:20 AM 57.2 °F 33.8 °F 41% 30.09 in 6.2 mi Variable 1.2 mph - N/A   Partly Cloudy
8:50 AM 59.0 °F 32.0 °F 36% 30.09 in 6.2 mi Calm Calm - N/A   Partly Cloudy
9:20 AM 64.4 °F 32.0 °F 30% 30.09 in 6.2 mi Variable 1.2 mph - N/A   Partly Cloudy
9:50 AM 66.2 °F 32.0 °F 28% 30.09 in 6.2 mi SW 3.5 mph - N/A   Partly Cloudy
10:20 AM 68.0 °F 30.2 °F 24% 30.06 in 6.2 mi WSW 4.6 mph - N/A   Partly Cloudy
10:50 AM 71.6 °F 32.0 °F 23% 30.06 in 6.2 mi WSW 3.5 mph - N/A   Partly Cloudy
11:20 AM 75.2 °F 33.8 °F 22% 30.06 in 6.2 mi Variable 2.3 mph - N/A   Partly Cloudy
11:50 AM 78.8 °F 35.6 °F 21% 30.04 in 6.2 mi Variable 2.3 mph - N/A   Partly Cloudy
12:20 PM 82.4 °F 35.6 °F 19% 30.04 in 6.2 mi Variable 2.3 mph - N/A   Partly Cloudy
12:50 PM 82.4 °F 33.8 °F 17% 30.01 in 6.2 mi NE 6.9 mph - N/A   Scattered Clouds
1:20 PM 86.0 °F 33.8 °F 15% 30.01 in 6.2 mi Variable 2.3 mph - N/A   Partly Cloudy
1:50 PM 84.2 °F 33.8 °F 16% 30.01 in 6.2 mi NW 4.6 mph - N/A   Partly Cloudy
2:20 PM 84.2 °F 30.2 °F 14% 30.01 in 6.2 mi Variable 3.5 mph - N/A   Partly Cloudy
2:50 PM 84.2 °F 30.2 °F 14% 30.01 in 6.2 mi ENE 5.8 mph - N/A   Partly Cloudy
3:20 PM 84.2 °F 30.2 °F 14% 30.01 in 6.2 mi NE 5.8 mph - N/A   Scattered Clouds
3:50 PM 84.2 °F 28.4 °F 13% 29.98 in 6.2 mi North 5.8 mph - N/A   Scattered Clouds
4:20 PM 84.2 °F 30.2 °F 14% 29.98 in 6.2 mi North 4.6 mph - N/A   Scattered Clouds
4:50 PM 82.4 °F 32.0 °F 16% 29.98 in 6.2 mi North 5.8 mph - N/A   Scattered Clouds
5:20 PM 77.0 °F 33.8 °F 21% 29.98 in 6.2 mi NNE 6.9 mph - N/A   Scattered Clouds
5:50 PM 73.4 °F 33.8 °F 23% 29.98 in 6.2 mi ENE 4.6 mph - N/A   Scattered Clouds
6:20 PM 71.6 °F 33.8 °F 25% 30.01 in 6.2 mi NE 4.6 mph - N/A   Scattered Clouds
6:50 PM 68.0 °F 35.6 °F 30% 30.01 in 6.2 mi NNE 5.8 mph - N/A   Partly Cloudy
7:20 PM 66.2 °F 37.4 °F 35% 30.01 in 6.2 mi NNE 5.8 mph - N/A   Partly Cloudy
7:50 PM 69.8 °F 35.6 °F 28% 30.01 in 6.2 mi NE 4.6 mph - N/A   Partly Cloudy
8:20 PM 66.2 °F 35.6 °F 32% 30.01 in 6.2 mi NE 5.8 mph - N/A   Partly Cloudy
8:50 PM 62.6 °F 35.6 °F 37% 30.04 in 6.2 mi ENE 5.8 mph - N/A   Partly Cloudy
9:20 PM 66.2 °F 35.6 °F 32% 30.04 in 6.2 mi NE 9.2 mph - N/A   Partly Cloudy
9:50 PM 62.6 °F 37.4 °F 39% 30.04 in 6.2 mi NE 6.9 mph - N/A   Partly Cloudy
10:20 PM 62.6 °F 35.6 °F 37% 30.04 in 6.2 mi NNE 8.1 mph - N/A   Partly Cloudy
10:50 PM 60.8 °F 35.6 °F 39% 30.04 in - NNE 8.1 mph - N/A   Clear
11:20 PM 62.6 °F 35.6 °F 37% 30.04 in - NE 6.9 mph - N/A   Clear
11:50 PM 60.8 °F 35.6 °F 39% 30.04 in - NNE 6.9 mph - N/A   Clear